| time (UTC) | temp C | wind direction | speed KPH | gust KPH | rain 1hr cm | rain 24hr cm | rain mn cm | humidity % | barometer mb |
| 20260504234522 | 15 | 295 | 4.8 | 11.3 | 0.00 | 0.43 | 0.00 | 79 | 1012.6 |
| 20260504233020 | 15 | 318 | 8.0 | 12.9 | 0.00 | 0.43 | 0.00 | 81 | 1012.6 |
| 20260504231519 | 14 | 288 | 1.6 | 4.8 | 0.00 | 0.43 | 0.00 | 84 | 1012.6 |
| 20260504230019 | 14 | 311 | 0.0 | 3.2 | 0.00 | 0.43 | 0.00 | 83 | 1012.4 |
| 20260504224514 | 15 | 313 | 1.6 | 4.8 | 0.00 | 0.43 | 0.00 | 83 | 1012.3 |
| 20260504221518 | 15 | 275 | 0.0 | 4.8 | 0.00 | 0.43 | 0.00 | 82 | 1012.2 |
| 20260504220009 | 15 | 221 | 0.0 | 0.0 | 0.00 | 0.43 | 0.00 | 83 | 1012.1 |
| 20260504214512 | 15 | 232 | 3.2 | 8.0 | 0.00 | 0.43 | 0.43 | 84 | 1012.3 |
| 20260504213022 | 15 | 271 | 1.6 | 9.7 | 0.00 | 0.43 | 0.43 | 84 | 1012.3 |
| 20260504211511 | 15 | 298 | 4.8 | 12.9 | 0.00 | 0.43 | 0.43 | 84 | 1012.2 |
| 20260504210005 | 15 | 324 | 6.4 | 11.3 | 0.20 | 0.46 | 0.43 | 83 | 1012.3 |
| 20260504204502 | 15 | 295 | 6.4 | 14.5 | 0.20 | 0.46 | 0.43 | 82 | 1012.7 |
| 20260504203121 | 15 | 309 | 8.0 | 14.5 | 0.20 | 0.46 | 0.43 | 81 | 1012.8 |
| 20260504201558 | 16 | 290 | 4.8 | 25.7 | 0.20 | 0.46 | 0.43 | 81 | 1013.0 |
| 20260504200056 | 16 | 146 | 4.8 | 12.9 | 0.00 | 0.25 | 0.23 | 84 | 1012.6 |
| 20260504194604 | 16 | 231 | 4.8 | 9.7 | 0.00 | 0.33 | 0.23 | 84 | 1012.2 |
| 20260504193105 | 16 | 231 | 1.6 | 4.8 | 0.00 | 0.33 | 0.23 | 86 | 1011.9 |
| 20260504191554 | 16 | 206 | 1.6 | 6.4 | 0.00 | 0.33 | 0.23 | 86 | 1011.8 |
| 20260504190113 | 16 | 229 | 3.2 | 8.0 | 0.00 | 0.33 | 0.23 | 86 | 1011.8 |
| 20260504184600 | 16 | 175 | 1.6 | 4.8 | 0.00 | 0.33 | 0.23 | 86 | 1011.5 |
| 20260504183051 | 17 | 221 | 3.2 | 4.8 | 0.00 | 0.33 | 0.23 | 85 | 1011.5 |
| 20260504181550 | 17 | 207 | 0.0 | 3.2 | 0.00 | 0.33 | 0.23 | 84 | 1011.0 |
| 20260504180050 | 17 | 165 | 0.0 | 3.2 | 0.00 | 0.33 | 0.23 | 83 | 1011.1 |
| 20260504174555 | 18 | 161 | 1.6 | 4.8 | 0.00 | 0.33 | 0.23 | 83 | 1011.1 |
| 20260504173052 | 17 | 191 | 0.0 | 1.6 | 0.03 | 0.33 | 0.23 | 85 | 1011.2 |
| 20260504171547 | 17 | 162 | 0.0 | 1.6 | 0.03 | 0.33 | 0.23 | 85 | 1011.2 |
| 20260504081508 | 20 | 141 | 9.7 | 16.1 | 0.00 | 0.08 | 0.00 | 73 | 1013.0 |
| 20260504080106 | 20 | 323 | 0.0 | 6.4 | 0.00 | 0.08 | 0.00 | 73 | 1013.0 |
| 20260504050025 | 16 | 316 | 0.0 | 4.8 | 0.00 | 0.08 | 0.00 | 84 | 1013.5 |
| 20260504044537 | 16 | 291 | 0.0 | 0.0 | 0.00 | 0.08 | 0.00 | 85 | 1013.5 |
| 20260504043023 | 16 | 296 | 0.0 | 0.0 | 0.00 | 0.08 | 0.00 | 85 | 1013.5 |
| 20260504041522 | 16 | 296 | 0.0 | 0.0 | 0.00 | 0.08 | 0.00 | 84 | 1013.6 |
| 20260504040021 | 16 | 233 | 0.0 | 0.0 | 0.00 | 0.08 | 0.00 | 85 | 1013.8 |
| 20260504034532 | 16 | 304 | 0.0 | 0.0 | 0.00 | 0.08 | 0.00 | 85 | 1013.8 |
| 20260504033025 | 16 | 304 | 0.0 | 0.0 | 0.00 | 0.08 | 0.00 | 85 | 1013.9 |
| 20260504031519 | 16 | 297 | 0.0 | 3.2 | 0.00 | 0.08 | 0.00 | 85 | 1014.1 |
| 20260504030017 | 16 | 243 | 0.0 | 1.6 | 0.00 | 0.08 | 0.00 | 85 | 1014.1 |
| 20260504024520 | 16 | 302 | 0.0 | 1.6 | 0.00 | 0.08 | 0.00 | 85 | 1013.9 |
| 20260504023016 | 16 | 302 | 1.6 | 3.2 | 0.00 | 0.08 | 0.00 | 85 | 1013.9 |
| 20260504021520 | 16 | 306 | 1.6 | 3.2 | 0.00 | 0.08 | 0.00 | 86 | 1014.0 |
| 20260504020015 | 16 | 306 | 0.0 | 4.8 | 0.00 | 0.08 | 0.00 | 86 | 1014.0 |
| 20260504013011 | 16 | 300 | 3.2 | 8.0 | 0.00 | 0.08 | 0.00 | 86 | 1014.1 |
| 20260504011509 | 16 | 286 | 1.6 | 4.8 | 0.00 | 0.08 | 0.00 | 86 | 1014.3 |
| 20260504010010 | 16 | 314 | 3.2 | 6.4 | 0.00 | 0.08 | 0.00 | 86 | 1014.3 |
| 20260504004511 | 16 | 304 | 3.2 | 6.4 | 0.00 | 0.08 | 0.00 | 86 | 1014.4 |
| 20260504003006 | 16 | 314 | 3.2 | 6.4 | 0.00 | 0.08 | 0.00 | 87 | 1014.7 |
| 20260504001506 | 16 | 293 | 3.2 | 4.8 | 0.00 | 0.08 | 0.00 | 87 | 1014.7 |
| 20260504000004 | 16 | 295 | 0.0 | 3.2 | 0.00 | 0.08 | 0.00 | 87 | 1014.7 |